Weather History for KMVL - November, 2013

Change the Weather History Date:

Friday, November 1, 2013

  Actual Average Record
Temperature  
Mean Temperature 60 °F 40 °F  
Max Temperature 67 °F 50 °F 69 °F (2005)
Min Temperature 53 °F 31 °F 26 °F (2000)
Degree Days  
Heating Degree Days 5 25  
Month to date heating degree days 5 25  
Since 1 July heating degree days 822 956  
Cooling Degree Days 0 0  
Month to date cooling degree days 0 0  
Year to date cooling degree days 401 265  
Growing Degree Days 10 (Base 50)    
Moisture  
Dew Point 49 °F    
Average Humidity 70    
Maximum Humidity 100    
Minimum Humidity 40    
Precipitation  
Precipitation 0.50 in 0.09 in 0.50 in (2013)
Month to date precipitation 0.50 0.09  
Year to date precipitation 36.05 30.33  
Sea Level Pressure  
Sea Level Pressure 29.43 in    
Wind  
Wind Speed 9 mph (SW)    
Max Wind Speed 24 mph    
Max Gust Speed 39 mph    
Visibility 7 miles    
Events Rain    
T = Trace of Precipitation, MM = Missing Value Source: NWS Daily Summary

Daily Weather History Graph

Daily Weather History Graph

Search for Another Location

Airport or City:

Trip Planner

Search our weather history database for the weather conditions in past years. The results will help you decide how hot, cold, wet, or windy it might be!

Date:

Astronomy

Nov. 01, 2013 Rise Set
Actual Time 7:28 AM EDT 5:39 PM EDT
Civil Twilight 6:57 AM EDT 6:09 PM EDT
Nautical Twilight 6:23 AM EDT 6:43 PM EDT
Astronomical Twilight 5:49 AM EDT 7:17 PM EDT
Moon 5:13 AM EDT (11/1) 4:33 PM EDT (11/1)
Length of Visible Light 11h 11m
Length of Day
10h 10m
Waning Crescent, 4% of the Moon is Illuminated
Nov 1
Waning Crescent
Nov 3
New
Nov 10
First Quarter
Nov 17
Full
Nov 25
Last Quarter

Hourly Weather History & Observations

Time (EDT) Temp. Dew Point Humidity Pressure Visibility Wind Dir Wind Speed Gust Speed Precip Events Conditions
12:54 AM 55.0 °F 53.1 °F 93% 29.58 in 3.0 mi Calm Calm - 0.08 in Rain Rain
1:48 AM 53.6 °F 53.6 °F 100% 29.54 in 1.8 mi Calm Calm - 0.07 in Rain Light Rain
1:54 AM 54.0 °F 53.1 °F 97% 29.54 in 1.2 mi Calm Calm - 0.08 in Rain Light Rain
2:06 AM 53.6 °F 53.6 °F 100% 29.51 in 0.8 mi Calm Calm - 0.01 in Rain Light Rain
2:28 AM 53.6 °F 53.6 °F 100% 29.50 in 1.2 mi Calm Calm - 0.02 in Rain Light Rain
2:35 AM 53.6 °F 51.8 °F 94% 29.50 in 0.8 mi Calm Calm - 0.02 in Rain Light Rain
2:43 AM 53.6 °F 53.6 °F 100% 29.50 in 1.2 mi Calm Calm - 0.02 in   Overcast
2:54 AM 54.0 °F 53.1 °F 97% 29.50 in 1.2 mi Calm Calm - 0.02 in Rain Light Rain
3:07 AM 55.4 °F 53.6 °F 94% 29.48 in 3.0 mi Calm Calm - 0.01 in Rain Light Rain
3:54 AM 59.0 °F 55.0 °F 87% 29.46 in 5.0 mi SSW 5.8 mph - 0.06 in Rain Light Rain
4:54 AM 59.0 °F 55.0 °F 87% 29.41 in 4.0 mi SSW 5.8 mph - 0.15 in Rain Rain
5:54 AM 60.1 °F 55.9 °F 86% 29.39 in 6.0 mi SSW 8.1 mph 16.1 mph 0.11 in Rain Light Rain
6:54 AM 62.1 °F 55.9 °F 80% 29.35 in 10.0 mi SSW 12.7 mph 24.2 mph 0.05 in Rain Light Rain
7:54 AM 64.0 °F 57.0 °F 78% 29.32 in 10.0 mi SSW 16.1 mph 26.5 mph 0.02 in   Overcast
8:54 AM 64.0 °F 57.0 °F 78% 29.32 in 10.0 mi SSW 10.4 mph 27.6 mph 0.00 in Rain Light Rain
9:54 AM 64.0 °F 57.9 °F 80% 29.32 in 4.0 mi SSW 9.2 mph - 0.02 in Rain Light Rain
10:54 AM 64.9 °F 55.9 °F 73% 29.29 in 10.0 mi Variable 6.9 mph 17.3 mph 0.00 in Rain Light Rain
11:54 AM 62.1 °F 54.0 °F 75% 29.29 in 10.0 mi SSW 16.1 mph 26.5 mph 0.00 in Rain Light Rain
12:54 PM 64.0 °F 51.1 °F 63% 29.27 in 10.0 mi SSW 12.7 mph 21.9 mph 0.00 in   Mostly Cloudy
1:54 PM 64.9 °F 48.9 °F 56% 29.26 in 10.0 mi SW 11.5 mph 28.8 mph N/A   Mostly Cloudy
2:54 PM 66.9 °F 46.9 °F 49% 29.26 in 10.0 mi SSW 11.5 mph 31.1 mph N/A   Mostly Cloudy
3:54 PM 66.9 °F 43.0 °F 42% 29.29 in 10.0 mi SSW 15.0 mph 29.9 mph N/A   Mostly Cloudy
4:54 PM 64.0 °F 39.9 °F 41% 29.33 in 10.0 mi SW 6.9 mph 21.9 mph N/A   Partly Cloudy
5:54 PM 63.0 °F 39.0 °F 41% 29.38 in 10.0 mi WSW 10.4 mph 26.5 mph N/A   Clear
6:54 PM 59.0 °F 37.9 °F 46% 29.46 in 10.0 mi SW 10.4 mph 25.3 mph N/A   Clear
7:54 PM 57.9 °F 39.0 °F 49% 29.51 in 10.0 mi Variable 5.8 mph 18.4 mph N/A   Overcast
8:54 PM 57.0 °F 39.0 °F 51% 29.55 in 10.0 mi SSW 12.7 mph 25.3 mph N/A   Overcast
9:54 PM 57.0 °F 39.0 °F 51% 29.59 in 10.0 mi SSW 12.7 mph 21.9 mph N/A   Overcast
10:54 PM 55.9 °F 39.0 °F 53% 29.61 in 10.0 mi Variable 5.8 mph - N/A   Overcast
11:54 PM 55.0 °F 39.0 °F 55% 29.62 in 10.0 mi West 8.1 mph - N/A   Overcast